Tracking 19832 objects as of 25-Aug-2019
HD Live streaming from Space Station
objects crossing your sky now

COSMOS 1541

Track COSMOS 1541 now!
COSMOS 1541 is classified as:


NORAD ID: 14790
Int'l Code: 1984-024A
Perigee: 7,982.6 km
Apogee: 32,416.4 km
Inclination: 71.6 °
Period: 718.4 minutes
Semi major axis: 26570 km
RCS: 7.9433 m2 (large)
Launch date: March 6, 1984
Source: Commonwealth of Independent States (former USSR) (CIS)
Launch site: PLESETSK MISSILE AND SPACE COMPLEX (PKMTR)
aabbcc
Your satellite tracking list
Your tracking list is empty




NASA's NSSDC Master Catalog

Two Line Element Set (TLE):
1 14790U 84024A   19236.95708865  .00000188  00000-0  00000+0 0  9994
2 14790  71.6189 243.9359 4597915  55.7776  67.9251  2.00448515232036
Source of the keplerian elements: AFSPC